Winslow, AZ

2:06 AM MST on April 24, 2017 (GMT -0700)
Winslow-Lindbergh Regional

Weather History for KINW - March, 2013

Change the Weather History Date:

Friday, March 22, 2013

  Actual Average Record
Temperature  
Mean Temperature 51 °F 48 °F  
Max Temperature 70 °F 65 °F 80 °F (2004)
Min Temperature 31 °F 31 °F 15 °F (1955)
Degree Days  
Heating Degree Days 14 17  
Month to date heating degree days 330 417  
Since 1 July heating degree days 3718 3912  
Cooling Degree Days 0 0  
Month to date cooling degree days 0 0  
Year to date cooling degree days 0 0  
Moisture  
Dew Point 16 °F    
Average Humidity 35    
Maximum Humidity 59    
Minimum Humidity 10    
Precipitation  
Precipitation T in 0.02 in 0.39 in (2007)
Month to date precipitation 0.34 0.38  
Year to date precipitation 1.48 1.36  
Sea Level Pressure  
Sea Level Pressure 29.71 in    
Wind  
Wind Speed 12 mph (WSW)    
Max Wind Speed 32 mph    
Max Gust Speed 46 mph    
Visibility 10 miles    
Events      
T = Trace of Precipitation, MM = Missing Value Source: NWS Daily Summary

Daily Weather History Graph

Daily Weather History Graph

Search for Another Location

Airport or City:

Trip Planner

Search our weather history database for the weather conditions in past years. The results will help you decide how hot, cold, wet, or windy it might be!

Date:

Astronomy

Mar. 22, 2013 Rise Set
Actual Time 6:23 AM MST 6:36 PM MST
Civil Twilight 5:58 AM MST 7:01 PM MST
Nautical Twilight 5:28 AM MST 7:31 PM MST
Astronomical Twilight 4:58 AM MST 8:01 PM MST
Moon 2:16 PM MST (3/22) 3:16 AM MST (3/22)
Length of Visible Light 13h 03m
Length of Day
12h 13m
Waxing Gibbous, 78% of the Moon is Illuminated
Mar 22
Waxing Gibbous
Mar 27
Full
Apr 2
Last Quarter
Apr 10
New
Apr 18
First Quarter

Hourly Weather History & Observations

Time (MST) Temp. Windchill Dew Point Humidity Pressure Visibility Wind Dir Wind Speed Gust Speed Precip Events Conditions
12:56 AM 42.1 °F 36.6 °F 23.0 °F 47% 29.73 in 10.0 mi West 9.2 mph - N/A   Clear
1:56 AM 42.1 °F 37.7 °F 14.0 °F 32% 29.71 in 10.0 mi NW 6.9 mph - N/A   Clear
2:56 AM 37.9 °F - 19.0 °F 47% 29.71 in 10.0 mi Calm Calm - N/A   Clear
3:56 AM 35.1 °F - 21.0 °F 57% 29.72 in 10.0 mi Calm Calm - N/A   Clear
4:56 AM 35.1 °F 30.1 °F 21.0 °F 57% 29.72 in 10.0 mi SE 5.8 mph - N/A   Clear
5:56 AM 32.0 °F 27.5 °F 19.0 °F 59% 29.75 in 10.0 mi ESE 4.6 mph - N/A   Clear
6:56 AM 32.0 °F 25.6 °F 19.9 °F 61% 29.78 in 10.0 mi NW 6.9 mph - N/A   Clear
7:56 AM 41.0 °F 38.0 °F 15.1 °F 35% 29.78 in 10.0 mi East 4.6 mph - N/A   Clear
8:56 AM 46.9 °F - 10.9 °F 23% 29.76 in 10.0 mi NNE 5.8 mph - N/A   Clear
9:56 AM 53.1 °F - 12.9 °F 20% 29.74 in 10.0 mi SE 3.5 mph - N/A   Clear
10:56 AM 59.0 °F - 17.1 °F 20% 29.72 in 10.0 mi Calm Calm - N/A   Clear
11:56 AM 62.1 °F - 19.0 °F 19% 29.67 in 10.0 mi NNW 6.9 mph - N/A   Mostly Cloudy
12:56 PM 66.0 °F - 17.1 °F 15% 29.65 in 10.0 mi WSW 24.2 mph 33.4 mph 0.00 in   Mostly Cloudy
1:56 PM 66.0 °F - 17.1 °F 15% 29.63 in 10.0 mi WSW 20.7 mph 32.2 mph 0.00 in   Mostly Cloudy
2:56 PM 69.1 °F - 15.1 °F 13% 29.61 in 10.0 mi WSW 28.8 mph 39.1 mph 0.00 in   Partly Cloudy
3:56 PM 66.0 °F - 9.0 °F 11% 29.63 in 10.0 mi WSW 23.0 mph 34.5 mph N/A   Partly Cloudy
4:56 PM 64.9 °F - 17.1 °F 16% 29.64 in 10.0 mi WSW 19.6 mph 31.1 mph N/A   Partly Cloudy
5:56 PM 63.0 °F - 26.1 °F 25% 29.67 in 10.0 mi SW 25.3 mph 33.4 mph N/A   Partly Cloudy
6:56 PM 55.9 °F - 28.9 °F 36% 29.71 in 10.0 mi SSW 21.9 mph - N/A   Clear
7:56 PM 53.1 °F - 30.0 °F 41% 29.72 in 10.0 mi SW 15.0 mph - N/A   Clear
8:56 PM 46.4 °F 42.9 °F 28.4 °F 50% 29.80 in 10.0 mi SW 6.9 mph - N/A   Clear
9:56 PM 48.0 °F - 8.1 °F 20% 29.73 in 10.0 mi WSW 16.1 mph - N/A   Clear
10:56 PM 45.0 °F 38.5 °F -0.0 °F 15% 29.74 in 10.0 mi WSW 13.8 mph - N/A   Clear
11:56 PM 43.0 °F 36.4 °F -4.0 °F 14% 29.74 in 10.0 mi WSW 12.7 mph - N/A   Clear